When you browse on this site, cookies collect data to enhance your experience and personalize the content and advertising you see.
Visit our Privacy Policy to learn more. By continuing to use the site, you agree to this use of cookies and data.
  • în România
  • Lista ţărilor
  • Pe 7 zile
  • Temperatura apei
  • Meteo pe hartă
  • Widget-uri
  • user-avatar
    Intrare

    Meteo pe oră la Berat

    Astăzi, 18 Noiembrie, Luni

    Timp Temperatura Precipitaţii Vânt Presiune Umiditate
    00:00 +16°C° 0.1 mm 2 m/s 743 mmHg 75%
    01:00 +15°C° 0.1 mm 2 m/s 743 mmHg 77%
    02:00 +15°C° 4.3 mm 2 m/s 743 mmHg 82%
    03:00 +14°C° 4.3 mm 2 m/s 743 mmHg 87%
    04:00 +14°C° 4.3 mm 2 m/s 743 mmHg 93%
    05:00 +14°C° 0.5 mm 2 m/s 744 mmHg 90%
    06:00 +14°C° 0.5 mm 2 m/s 744 mmHg 88%
    07:00 +13°C° 0.5 mm 2 m/s 744 mmHg 85%
    08:00 +15°C° 0 mm 2 m/s 745 mmHg 80%
    09:00 +16°C° 0 mm 2 m/s 745 mmHg 74%
    10:00 +18°C° 0 mm 1 m/s 745 mmHg 68%
    11:00 +19°C° 0 mm 1 m/s 746 mmHg 68%
    12:00 +19°C° 0 mm 1 m/s 746 mmHg 67%
    13:00 +19°C° 0 mm 1 m/s 746 mmHg 66%
    14:00 +19°C° 0 mm 1 m/s 746 mmHg 70%
    15:00 +18°C° 0 mm 1 m/s 746 mmHg 74%
    16:00 +16°C° 0 mm 1 m/s 746 mmHg 78%
    17:00 +16°C° 0 mm 1 m/s 746 mmHg 79%
    18:00 +15°C° 0 mm 1 m/s 746 mmHg 80%
    19:00 +14°C° 0 mm 1 m/s 746 mmHg 82%
    20:00 +14°C° 0 mm 1 m/s 746 mmHg 81%
    21:00 +14°C° 0 mm 1 m/s 747 mmHg 80%
    22:00 +14°C° 0 mm 2 m/s 747 mmHg 79%
    23:00 +13°C° 0 mm 2 m/s 747 mmHg 79%

    Mâine, 19 Noiembrie, Marţi

    Timp Temperatura Precipitaţii Vânt Presiune Umiditate
    00:00 +13°C° 0 mm 2 m/s 747 mmHg 79%
    01:00 +13°C° 0 mm 2 m/s 747 mmHg 79%
    02:00 +13°C° 0 mm 2 m/s 747 mmHg 78%
    03:00 +13°C° 0 mm 2 m/s 747 mmHg 78%
    04:00 +13°C° 0 mm 2 m/s 747 mmHg 78%
    05:00 +13°C° 0 mm 2 m/s 747 mmHg 79%
    06:00 +13°C° 0 mm 2 m/s 747 mmHg 79%
    07:00 +13°C° 0 mm 2 m/s 747 mmHg 80%
    08:00 +15°C° 0 mm 2 m/s 747 mmHg 75%
    09:00 +16°C° 0 mm 2 m/s 747 mmHg 70%
    10:00 +19°C° 0 mm 1 m/s 747 mmHg 65%
    11:00 +20°C° 0 mm 1 m/s 747 mmHg 63%
    12:00 +20°C° 0 mm 2 m/s 747 mmHg 61%
    13:00 +20°C° 0 mm 2 m/s 746 mmHg 59%
    14:00 +19°C° 0.4 mm 2 m/s 746 mmHg 65%
    15:00 +18°C° 0.4 mm 2 m/s 745 mmHg 72%
    16:00 +17°C° 0.4 mm 2 m/s 745 mmHg 78%
    17:00 +17°C° 0.8 mm 2 m/s 745 mmHg 81%
    18:00 +16°C° 0.8 mm 2 m/s 745 mmHg 84%
    19:00 +16°C° 0.8 mm 2 m/s 745 mmHg 87%
    20:00 +16°C° 0.6 mm 2 m/s 745 mmHg 87%
    21:00 +16°C° 0.6 mm 2 m/s 744 mmHg 87%
    22:00 +16°C° 0.6 mm 2 m/s 744 mmHg 87%
    23:00 +15°C° 3.1 mm 2 m/s 744 mmHg 89%

    Poimâine, 20 Noiembrie, Miercuri

    Timp Temperatura Precipitaţii Vânt Presiune Umiditate
    00:00 +15°C° 3.1 mm 2 m/s 743 mmHg 92%
    01:00 +15°C° 3.1 mm 2 m/s 743 mmHg 94%
    02:00 +14°C° 4.1 mm 2 m/s 743 mmHg 92%
    03:00 +14°C° 4.1 mm 2 m/s 743 mmHg 91%
    04:00 +13°C° 4.1 mm 2 m/s 743 mmHg 89%
    05:00 +13°C° 0.3 mm 2 m/s 743 mmHg 89%
    06:00 +13°C° 0.3 mm 2 m/s 743 mmHg 88%
    07:00 +13°C° 0.3 mm 2 m/s 743 mmHg 87%
    08:00 +13°C° 0.1 mm 3 m/s 743 mmHg 82%
    09:00 +14°C° 0.1 mm 3 m/s 744 mmHg 77%
    10:00 +16°C° 0.1 mm 3 m/s 744 mmHg 71%
    11:00 +17°C° 0.3 mm 3 m/s 744 mmHg 68%
    12:00 +17°C° 0.3 mm 3 m/s 744 mmHg 66%
    13:00 +17°C° 0.3 mm 3 m/s 744 mmHg 63%
    14:00 +16°C° 0.2 mm 2 m/s 744 mmHg 68%
    15:00 +16°C° 0.2 mm 2 m/s 744 mmHg 72%
    16:00 +15°C° 0.2 mm 1 m/s 744 mmHg 77%
    17:00 +14°C° 0 mm 1 m/s 744 mmHg 79%
    18:00 +14°C° 0 mm 1 m/s 744 mmHg 82%
    19:00 +13°C° 0 mm 1 m/s 745 mmHg 84%
    20:00 +13°C° 0 mm 1 m/s 745 mmHg 84%
    21:00 +12°C° 0 mm 1 m/s 745 mmHg 84%
    22:00 +12°C° 0 mm 1 m/s 745 mmHg 83%
    23:00 +12°C° 0 mm 1 m/s 745 mmHg 83%

    21 Noiembrie, Joi

    Timp Temperatura Precipitaţii Vânt Presiune Umiditate
    00:00 +12°C° 0 mm 1 m/s 745 mmHg 82%
    01:00 +12°C° 0 mm 1 m/s 745 mmHg 82%
    02:00 +12°C° 0 mm 1 m/s 745 mmHg 81%
    03:00 +11°C° 0 mm 1 m/s 745 mmHg 80%
    04:00 +11°C° 0 mm 1 m/s 744 mmHg 80%
    05:00 +11°C° 0 mm 1 m/s 744 mmHg 79%
    06:00 +11°C° 0 mm 1 m/s 744 mmHg 78%
    07:00 +11°C° 0 mm 1 m/s 744 mmHg 78%
    08:00 +13°C° 0 mm 1 m/s 745 mmHg 72%
    09:00 +14°C° 0 mm 1 m/s 745 mmHg 66%
    10:00 +16°C° 0 mm 1 m/s 745 mmHg 60%
    11:00 +16°C° 0 mm 1 m/s 744 mmHg 58%
    12:00 +18°C° 0 mm 1 m/s 744 mmHg 57%
    13:00 +18°C° 0 mm 1 m/s 744 mmHg 55%
    14:00 +16°C° 0 mm 1 m/s 744 mmHg 61%
    15:00 +15°C° 0 mm 1 m/s 743 mmHg 67%
    16:00 +14°C° 0 mm 1 m/s 743 mmHg 73%
    17:00 +14°C° 0 mm 1 m/s 743 mmHg 75%
    18:00 +12°C° 0 mm 0 m/s 744 mmHg 76%
    19:00 +12°C° 0 mm 0 m/s 744 mmHg 78%
    20:00 +13°C° 0 mm 1 m/s 744 mmHg 77%
    21:00 +12°C° 0 mm 1 m/s 744 mmHg 76%
    22:00 +12°C° 0 mm 1 m/s 744 mmHg 75%
    23:00 +12°C° 0 mm 1 m/s 744 mmHg 74%

    22 Noiembrie, Vineri

    Timp Temperatura Precipitaţii Vânt Presiune Umiditate
    00:00 +12°C° 0 mm 1 m/s 744 mmHg 73%
    01:00 +12°C° 0 mm 1 m/s 744 mmHg 73%
    02:00 +11°C° 0 mm 1 m/s 744 mmHg 72%
    03:00 +11°C° 0 mm 1 m/s 744 mmHg 71%
    04:00 +11°C° 0 mm 1 m/s 744 mmHg 71%
    05:00 +11°C° 0 mm 1 m/s 744 mmHg 71%
    06:00 +10°C° 0 mm 2 m/s 744 mmHg 71%
    07:00 +10°C° 0 mm 2 m/s 744 mmHg 70%
    08:00 +13°C° 0 mm 1 m/s 745 mmHg 65%
    09:00 +14°C° 0 mm 1 m/s 745 mmHg 59%
    10:00 +16°C° 0 mm 1 m/s 745 mmHg 54%
    11:00 +18°C° 0 mm 1 m/s 745 mmHg 51%
    12:00 +18°C° 0 mm 1 m/s 744 mmHg 49%
    13:00 +19°C° 0 mm 1 m/s 744 mmHg 46%
    14:00 +18°C° 0 mm 1 m/s 744 mmHg 53%
    15:00 +16°C° 0 mm 1 m/s 744 mmHg 59%
    16:00 +15°C° 0 mm 1 m/s 744 mmHg 66%
    17:00 +14°C° 0 mm 1 m/s 745 mmHg 68%
    18:00 +14°C° 0 mm 1 m/s 745 mmHg 70%
    19:00 +13°C° 0 mm 1 m/s 745 mmHg 72%
    20:00 +13°C° 0 mm 1 m/s 745 mmHg 72%
    21:00 +13°C° 0 mm 1 m/s 745 mmHg 72%
    22:00 +12°C° 0 mm 2 m/s 745 mmHg 71%
    23:00 +12°C° 0 mm 2 m/s 745 mmHg 72%

    23 Noiembrie, Sâmbătă

    Timp Temperatura Precipitaţii Vânt Presiune Umiditate
    00:00 +12°C° 0 mm 2 m/s 745 mmHg 72%
    01:00 +12°C° 0 mm 2 m/s 745 mmHg 72%
    02:00 +12°C° 0 mm 2 m/s 745 mmHg 73%
    03:00 +12°C° 0 mm 2 m/s 745 mmHg 74%
    04:00 +12°C° 0 mm 2 m/s 745 mmHg 75%
    05:00 +12°C° 0 mm 2 m/s 745 mmHg 76%
    06:00 +12°C° 0 mm 2 m/s 745 mmHg 77%
    07:00 +12°C° 0 mm 2 m/s 745 mmHg 77%
    08:00 +13°C° 0 mm 2 m/s 745 mmHg 73%
    09:00 +15°C° 0 mm 2 m/s 745 mmHg 68%
    10:00 +16°C° 0 mm 2 m/s 745 mmHg 63%
    11:00 +17°C° 0 mm 2 m/s 745 mmHg 61%
    12:00 +17°C° 0 mm 2 m/s 744 mmHg 58%
    13:00 +18°C° 0 mm 2 m/s 744 mmHg 55%
    14:00 +17°C° 0 mm 2 m/s 744 mmHg 60%
    15:00 +16°C° 0 mm 1 m/s 743 mmHg 65%
    16:00 +15°C° 0 mm 1 m/s 743 mmHg 70%
    17:00 +15°C° 0 mm 1 m/s 743 mmHg 72%
    18:00 +14°C° 0 mm 2 m/s 743 mmHg 74%
    19:00 +14°C° 0 mm 2 m/s 743 mmHg 76%
    20:00 +14°C° 0 mm 2 m/s 743 mmHg 77%
    21:00 +13°C° 0 mm 2 m/s 743 mmHg 78%
    22:00 +13°C° 0 mm 2 m/s 743 mmHg 79%
    23:00 +12°C° 0 mm 3 m/s 743 mmHg 79%
    Arată mai mult